#ZEITBEREICH: 09.05.2023 bis 09.05.2024
Datum;Zeit;NIZI O3 AM1H [�g/m�];NIZI PM10F GM24H [�g/m�];NIZI WG SM1H [m/s];NIZI WR VM1H [�]
09.05.2023;01:00;;17;2,1;254
09.05.2023;02:00;33;17;1,9;244
09.05.2023;03:00;32;17;1,5;254
09.05.2023;04:00;23;18;1,1;167
09.05.2023;05:00;12;18;0,3;
09.05.2023;06:00;9;18;1,2;123
09.05.2023;07:00;19;19;2,0;138
09.05.2023;08:00;30;20;2,1;125
09.05.2023;09:00;40;20;3,7;149
09.05.2023;10:00;52;19;3,0;160
09.05.2023;11:00;57;18;2,6;172
09.05.2023;12:00;62;17;4,6;174
09.05.2023;13:00;63;17;4,4;185
09.05.2023;14:00;61;17;3,8;232
09.05.2023;15:00;52;17;4,5;248
09.05.2023;16:00;48;16;2,7;248
09.05.2023;17:00;49;16;1,9;246
09.05.2023;18:00;48;16;3,4;271
09.05.2023;19:00;46;16;2,7;273
09.05.2023;20:00;54;15;3,8;258
09.05.2023;21:00;48;15;2,6;262
09.05.2023;22:00;45;14;3,0;257
09.05.2023;23:00;41;13;3,3;257
09.05.2023;24:00;35;13;2,8;254
10.05.2023;01:00;31;12;2,6;251
10.05.2023;02:00;;12;2,7;256
10.05.2023;03:00;50;11;2,7;263
10.05.2023;04:00;50;10;2,5;262
10.05.2023;05:00;55;10;3,9;256
10.05.2023;06:00;54;<10;3,7;267
10.05.2023;07:00;48;<10;3,1;259
10.05.2023;08:00;44;<10;3,1;254
10.05.2023;09:00;46;<10;3,3;267
10.05.2023;10:00;51;<10;4,5;265
10.05.2023;11:00;57;<10;5,6;263
10.05.2023;12:00;59;<10;5,2;266
10.05.2023;13:00;63;<10;4,7;267
10.05.2023;14:00;66;<10;3,8;266
10.05.2023;15:00;67;<10;3,9;260
10.05.2023;16:00;76;<10;4,0;253
10.05.2023;17:00;66;<10;3,6;250
10.05.2023;18:00;77;<10;4,2;256
10.05.2023;19:00;70;<10;2,8;276
10.05.2023;20:00;64;<10;1,4;299
10.05.2023;21:00;33;<10;0,7;
10.05.2023;22:00;33;<10;1,0;
10.05.2023;23:00;45;<10;2,3;239
10.05.2023;24:00;53;<10;3,1;256
11.05.2023;01:00;56;<10;2,8;243
11.05.2023;02:00;52;<10;1,8;229
11.05.2023;03:00;;<10;2,9;273
11.05.2023;04:00;43;<10;2,6;261
11.05.2023;05:00;36;<10;2,3;268
11.05.2023;06:00;31;<10;2,2;272
11.05.2023;07:00;28;<10;1,0;273
11.05.2023;08:00;43;<10;1,5;295
11.05.2023;09:00;46;<10;1,8;280
11.05.2023;10:00;38;<10;1,7;288
11.05.2023;11:00;58;<10;2,4;275
11.05.2023;12:00;60;10;3,0;287
11.05.2023;13:00;57;11;3,4;289
11.05.2023;14:00;63;11;3,2;284
11.05.2023;15:00;72;12;3,1;296
11.05.2023;16:00;72;12;3,3;315
11.05.2023;17:00;80;13;3,0;320
11.05.2023;18:00;78;13;2,2;316
11.05.2023;19:00;73;13;2,2;30
11.05.2023;20:00;64;14;2,2;51
11.05.2023;21:00;60;14;0,9;
11.05.2023;22:00;34;14;0,4;
11.05.2023;23:00;45;15;0,8;275
11.05.2023;24:00;42;15;1,4;287
12.05.2023;01:00;41;15;1,9;276
12.05.2023;02:00;43;16;2,4;263
12.05.2023;03:00;45;16;2,6;263
12.05.2023;04:00;;16;2,7;280
12.05.2023;05:00;37;16;1,7;334
12.05.2023;06:00;33;15;2,0;24
12.05.2023;07:00;32;15;1,7;54
12.05.2023;08:00;32;15;2,9;67
12.05.2023;09:00;42;14;4,8;83
12.05.2023;10:00;50;14;5,3;89
12.05.2023;11:00;57;13;5,8;99
12.05.2023;12:00;68;13;5,6;95
12.05.2023;13:00;79;12;5,1;106
12.05.2023;14:00;83;12;4,2;81
12.05.2023;15:00;84;12;3,2;72
12.05.2023;16:00;80;12;3,6;55
12.05.2023;17:00;74;12;3,2;91
12.05.2023;18:00;67;12;1,3;157
12.05.2023;19:00;69;12;0,7;
12.05.2023;20:00;76;11;2,2;61
12.05.2023;21:00;77;11;2,7;92
12.05.2023;22:00;70;11;2,5;63
12.05.2023;23:00;39;12;1,2;5
12.05.2023;24:00;17;12;0,6;285
13.05.2023;01:00;15;11;0,6;246
13.05.2023;02:00;13;11;1,6;277
13.05.2023;03:00;24;12;1,9;277
13.05.2023;04:00;23;12;1,4;274
13.05.2023;05:00;;13;1,6;275
13.05.2023;06:00;15;13;1,0;278
13.05.2023;07:00;23;14;1,6;272
13.05.2023;08:00;29;15;1,3;275
13.05.2023;09:00;36;16;0,8;240
13.05.2023;10:00;46;17;0,9;
13.05.2023;11:00;72;18;2,0;65
13.05.2023;12:00;80;19;2,0;29
13.05.2023;13:00;97;19;3,3;22
13.05.2023;14:00;99;20;5,7;124
13.05.2023;15:00;98;19;2,4;154
13.05.2023;16:00;101;19;1,9;163
13.05.2023;17:00;104;19;3,3;139
13.05.2023;18:00;101;19;4,1;101
13.05.2023;19:00;97;19;3,2;325
13.05.2023;20:00;89;19;2,0;300
13.05.2023;21:00;43;19;0,6;
13.05.2023;22:00;31;19;0,7;
13.05.2023;23:00;22;18;0,9;198
13.05.2023;24:00;34;18;2,1;303
14.05.2023;01:00;20;18;1,5;275
14.05.2023;02:00;15;18;1,0;280
14.05.2023;03:00;9;18;0,6;
14.05.2023;04:00;6;17;1,1;259
14.05.2023;05:00;19;17;2,2;294
14.05.2023;06:00;;17;1,2;286
14.05.2023;07:00;27;17;1,7;275
14.05.2023;08:00;47;17;2,1;283
14.05.2023;09:00;51;16;2,3;273
14.05.2023;10:00;65;16;2,0;287
14.05.2023;11:00;64;16;3,1;275
14.05.2023;12:00;77;17;3,6;268
14.05.2023;13:00;98;17;3,3;285
14.05.2023;14:00;109;17;3,2;313
14.05.2023;15:00;108;18;4,3;319
14.05.2023;16:00;121;18;4,0;318
14.05.2023;17:00;117;19;3,7;305
14.05.2023;18:00;108;19;3,4;324
14.05.2023;19:00;103;19;3,2;338
14.05.2023;20:00;102;19;3,6;342
14.05.2023;21:00;102;19;3,9;343
14.05.2023;22:00;90;20;2,8;346
14.05.2023;23:00;69;20;1,1;233
14.05.2023;24:00;73;20;2,1;257
15.05.2023;01:00;55;21;2,1;255
15.05.2023;02:00;44;21;3,5;269
15.05.2023;03:00;51;21;3,2;270
15.05.2023;04:00;49;22;3,9;283
15.05.2023;05:00;45;23;3,8;271
15.05.2023;06:00;50;24;3,3;265
15.05.2023;07:00;;24;4,2;279
15.05.2023;08:00;62;24;4,4;267
15.05.2023;09:00;67;25;5,1;278
15.05.2023;10:00;85;25;4,9;278
15.05.2023;11:00;95;25;3,5;287
15.05.2023;12:00;105;25;3,9;304
15.05.2023;13:00;118;24;3,9;302
15.05.2023;14:00;118;24;4,1;305
15.05.2023;15:00;115;24;5,6;312
15.05.2023;16:00;98;25;6,1;309
15.05.2023;17:00;78;25;5,9;295
15.05.2023;18:00;76;26;4,8;286
15.05.2023;19:00;70;26;4,6;283
15.05.2023;20:00;56;26;4,1;284
15.05.2023;21:00;55;26;4,6;285
15.05.2023;22:00;69;25;3,9;288
15.05.2023;23:00;64;25;2,7;272
15.05.2023;24:00;64;24;3,4;278
16.05.2023;01:00;64;24;3,9;289
16.05.2023;02:00;65;23;4,7;312
16.05.2023;03:00;68;22;4,8;321
16.05.2023;04:00;67;21;3,4;321
16.05.2023;05:00;64;21;3,5;314
16.05.2023;06:00;56;20;2,0;306
16.05.2023;07:00;52;19;2,0;307
16.05.2023;08:00;58;18;3,4;327
16.05.2023;09:00;64;17;4,3;339
16.05.2023;10:00;66;16;4,5;328
16.05.2023;11:00;70;15;5,0;333
16.05.2023;12:00;71;15;4,6;340
16.05.2023;13:00;75;14;4,3;326
16.05.2023;14:00;;14;4,9;325
16.05.2023;15:00;;13;5,0;348
16.05.2023;16:00;79;12;5,0;334
16.05.2023;17:00;76;12;4,6;336
16.05.2023;18:00;75;;5,3;334
16.05.2023;19:00;73;;4,3;341
16.05.2023;20:00;69;;3,2;342
16.05.2023;21:00;67;;2,6;348
16.05.2023;22:00;58;;1,6;327
16.05.2023;23:00;55;;2,0;335
16.05.2023;24:00;57;;2,5;324
17.05.2023;01:00;58;;2,4;321
17.05.2023;02:00;53;;2,9;316
17.05.2023;03:00;50;;2,5;300
17.05.2023;04:00;34;;1,8;264
17.05.2023;05:00;21;;1,8;256
17.05.2023;06:00;30;;2,4;269
17.05.2023;07:00;25;;2,6;284
17.05.2023;08:00;39;;3,0;314
17.05.2023;09:00;55;;2,9;344
17.05.2023;10:00;65;;3,5;345
17.05.2023;11:00;72;;4,0;341
17.05.2023;12:00;77;;4,0;11
17.05.2023;13:00;79;;3,9;9
17.05.2023;14:00;79;11;4,4;357
17.05.2023;15:00;80;12;4,3;359
17.05.2023;16:00;83;12;4,5;11
17.05.2023;17:00;86;12;4,3;11
17.05.2023;18:00;88;12;4,6;16
17.05.2023;19:00;87;12;3,7;4
17.05.2023;20:00;80;12;3,0;349
17.05.2023;21:00;77;13;3,3;344
17.05.2023;22:00;76;14;3,1;344
17.05.2023;23:00;;15;2,3;56
17.05.2023;24:00;64;16;3,1;54
18.05.2023;01:00;59;17;3,1;53
18.05.2023;02:00;54;18;3,5;54
18.05.2023;03:00;51;19;3,8;51
18.05.2023;04:00;49;19;4,2;51
18.05.2023;05:00;42;20;3,6;61
18.05.2023;06:00;24;21;1,2;72
18.05.2023;07:00;37;21;2,2;61
18.05.2023;08:00;46;22;2,7;58
18.05.2023;09:00;52;22;2,6;48
18.05.2023;10:00;65;22;2,7;56
18.05.2023;11:00;73;22;3,0;49
18.05.2023;12:00;83;22;3,1;81
18.05.2023;13:00;84;22;2,9;75
18.05.2023;14:00;87;22;2,7;21
18.05.2023;15:00;88;22;3,1;26
18.05.2023;16:00;91;22;3,5;27
18.05.2023;17:00;93;22;3,6;16
18.05.2023;18:00;93;22;3,9;5
18.05.2023;19:00;91;22;2,9;359
18.05.2023;20:00;85;22;;
18.05.2023;21:00;79;22;;
18.05.2023;22:00;80;21;4,1;16
18.05.2023;23:00;75;21;4,1;45
18.05.2023;24:00;;20;4,2;44
19.05.2023;01:00;67;20;4,0;56
19.05.2023;02:00;45;20;1,8;72
19.05.2023;03:00;23;19;1,3;139
19.05.2023;04:00;15;18;0,6;191
19.05.2023;05:00;8;18;0,4;
19.05.2023;06:00;6;17;0,5;
19.05.2023;07:00;16;17;0,4;
19.05.2023;08:00;39;18;2,0;60
19.05.2023;09:00;49;18;2,5;51
19.05.2023;10:00;55;18;2,6;65
19.05.2023;11:00;66;18;2,9;58
19.05.2023;12:00;78;18;3,2;61
19.05.2023;13:00;89;18;3,1;60
19.05.2023;14:00;94;18;2,7;39
19.05.2023;15:00;97;18;3,7;25
19.05.2023;16:00;100;18;3,8;22
19.05.2023;17:00;102;18;4,2;26
19.05.2023;18:00;103;18;5,0;24
19.05.2023;19:00;103;18;4,7;29
19.05.2023;20:00;104;18;4,3;29
19.05.2023;21:00;97;18;2,9;31
19.05.2023;22:00;85;18;2,2;76
19.05.2023;23:00;82;18;4,4;56
19.05.2023;24:00;77;18;3,5;50
20.05.2023;01:00;;17;3,2;52
20.05.2023;02:00;65;17;3,2;49
20.05.2023;03:00;62;17;2,8;47
20.05.2023;04:00;57;17;2,7;49
20.05.2023;05:00;54;17;2,9;55
20.05.2023;06:00;52;18;3,5;47
20.05.2023;07:00;50;17;3,7;44
20.05.2023;08:00;54;16;3,8;42
20.05.2023;09:00;56;16;3,6;40
20.05.2023;10:00;63;15;4,1;43
20.05.2023;11:00;67;15;4,1;42
20.05.2023;12:00;67;15;4,5;32
20.05.2023;13:00;72;15;5,6;32
20.05.2023;14:00;66;15;5,3;30
20.05.2023;15:00;71;16;4,2;43
20.05.2023;16:00;76;16;4,5;42
20.05.2023;17:00;79;16;5,1;55
20.05.2023;18:00;82;16;4,8;37
20.05.2023;19:00;81;16;4,3;59
20.05.2023;20:00;75;16;3,5;44
20.05.2023;21:00;71;17;2,9;40
20.05.2023;22:00;65;17;3,0;55
20.05.2023;23:00;62;17;3,6;48
20.05.2023;24:00;58;17;4,0;41
21.05.2023;01:00;50;17;4,0;41
21.05.2023;02:00;;18;3,6;42
21.05.2023;03:00;49;18;2,5;35
21.05.2023;04:00;41;18;1,3;16
21.05.2023;05:00;38;18;1,7;31
21.05.2023;06:00;34;18;1,3;343
21.05.2023;07:00;31;18;1,0;306
21.05.2023;08:00;43;18;1,1;
21.05.2023;09:00;44;18;1,6;310
21.05.2023;10:00;52;19;1,8;7
21.05.2023;11:00;59;19;3,1;21
21.05.2023;12:00;67;19;3,6;15
21.05.2023;13:00;76;20;4,1;13
21.05.2023;14:00;81;20;3,5;18
21.05.2023;15:00;92;20;3,3;8
21.05.2023;16:00;101;21;4,0;345
21.05.2023;17:00;109;21;3,8;2
21.05.2023;18:00;111;21;3,4;348
21.05.2023;19:00;98;21;2,0;333
21.05.2023;20:00;76;22;2,2;294
21.05.2023;21:00;62;22;1,8;260
21.05.2023;22:00;69;22;1,4;286
21.05.2023;23:00;44;23;1,5;293
21.05.2023;24:00;30;23;1,3;290
22.05.2023;01:00;42;23;1,9;275
22.05.2023;02:00;43;24;2,4;296
22.05.2023;03:00;;24;2,6;271
22.05.2023;04:00;40;24;3,0;276
22.05.2023;05:00;35;25;3,3;283
22.05.2023;06:00;33;25;3,5;271
22.05.2023;07:00;39;26;4,1;267
22.05.2023;08:00;43;26;4,0;270
22.05.2023;09:00;45;27;4,2;273
22.05.2023;10:00;43;28;4,7;274
22.05.2023;11:00;37;28;4,9;265
22.05.2023;12:00;49;29;4,8;270
22.05.2023;13:00;57;30;5,0;275
22.05.2023;14:00;67;31;5,0;277
22.05.2023;15:00;78;32;5,2;275
22.05.2023;16:00;85;33;5,3;273
22.05.2023;17:00;90;34;4,8;271
22.05.2023;18:00;97;35;4,7;268
22.05.2023;19:00;101;36;4,4;272
22.05.2023;20:00;91;37;3,6;281
22.05.2023;21:00;83;38;3,1;277
22.05.2023;22:00;81;39;3,5;282
22.05.2023;23:00;75;39;2,9;285
22.05.2023;24:00;65;39;2,7;298
23.05.2023;01:00;52;39;1,8;280
23.05.2023;02:00;65;39;1,6;261
23.05.2023;03:00;71;39;2,8;291
23.05.2023;04:00;;38;3,0;307
23.05.2023;05:00;78;38;3,1;289
23.05.2023;06:00;83;37;3,7;298
23.05.2023;07:00;82;36;3,4;294
23.05.2023;08:00;84;35;4,0;305
23.05.2023;09:00;84;34;4,0;310
23.05.2023;10:00;72;33;4,8;308
23.05.2023;11:00;59;32;5,5;315
23.05.2023;12:00;75;31;5,8;322
23.05.2023;13:00;78;30;3,4;319
23.05.2023;14:00;75;29;4,4;328
23.05.2023;15:00;79;27;5,0;327
23.05.2023;16:00;84;26;4,7;319
23.05.2023;17:00;84;24;4,5;337
23.05.2023;18:00;81;23;4,5;343
23.05.2023;19:00;80;21;4,5;351
23.05.2023;20:00;78;20;4,0;347
23.05.2023;21:00;74;19;3,4;346
23.05.2023;22:00;71;18;3,6;344
23.05.2023;23:00;70;17;2,6;340
23.05.2023;24:00;59;16;1,4;170
24.05.2023;01:00;52;16;1,2;179
24.05.2023;02:00;45;15;0,8;248
24.05.2023;03:00;30;15;1,0;251
24.05.2023;04:00;24;15;1,0;254
24.05.2023;05:00;;14;1,2;273
24.05.2023;06:00;16;14;1,1;283
24.05.2023;07:00;37;14;2,0;300
24.05.2023;08:00;53;14;1,4;289
24.05.2023;09:00;63;15;2,5;328
24.05.2023;10:00;73;15;3,1;338
24.05.2023;11:00;71;15;2,6;347
24.05.2023;12:00;72;15;3,3;357
24.05.2023;13:00;73;15;2,7;337
24.05.2023;14:00;81;15;3,7;336
24.05.2023;15:00;82;15;3,6;16
24.05.2023;16:00;85;15;4,5;0
24.05.2023;17:00;85;15;3,5;1
24.05.2023;18:00;81;15;3,3;17
24.05.2023;19:00;73;15;2,9;27
24.05.2023;20:00;67;15;2,5;36
24.05.2023;21:00;61;15;1,6;43
24.05.2023;22:00;48;16;1,0;75
24.05.2023;23:00;26;16;0,7;46
24.05.2023;24:00;23;16;1,1;45
25.05.2023;01:00;22;16;1,4;27
25.05.2023;02:00;19;16;0,8;102
25.05.2023;03:00;14;17;1,4;58
25.05.2023;04:00;13;18;1,3;43
25.05.2023;05:00;11;18;0,9;
25.05.2023;06:00;;19;0,5;
25.05.2023;07:00;13;20;0,9;
25.05.2023;08:00;37;21;1,9;50
25.05.2023;09:00;43;21;2,2;63
25.05.2023;10:00;52;22;2,7;54
25.05.2023;11:00;60;23;3,4;20
25.05.2023;12:00;70;23;4,1;23
25.05.2023;13:00;75;23;4,6;15
25.05.2023;14:00;79;24;5,3;9
25.05.2023;15:00;78;24;4,8;34
25.05.2023;16:00;77;24;4,6;42
25.05.2023;17:00;82;24;4,1;42
25.05.2023;18:00;85;24;3,7;37
25.05.2023;19:00;84;24;3,6;33
25.05.2023;20:00;82;24;2,7;37
25.05.2023;21:00;69;24;1,8;43
25.05.2023;22:00;36;24;0,5;
25.05.2023;23:00;28;24;0,1;
25.05.2023;24:00;23;24;1,3;352
26.05.2023;01:00;56;24;2,8;37
26.05.2023;02:00;58;25;4,3;36
26.05.2023;03:00;56;25;3,0;42
26.05.2023;04:00;57;24;5,0;38
26.05.2023;05:00;55;24;5,6;45
26.05.2023;06:00;52;24;5,4;33
26.05.2023;07:00;;24;4,3;31
26.05.2023;08:00;49;23;3,3;22
26.05.2023;09:00;49;23;3,4;29
26.05.2023;10:00;53;23;3,3;29
26.05.2023;11:00;57;23;3,2;25
26.05.2023;12:00;65;24;3,2;32
26.05.2023;13:00;73;24;3,8;39
26.05.2023;14:00;81;24;3,8;32
26.05.2023;15:00;86;24;4,3;34
26.05.2023;16:00;94;25;5,1;30
26.05.2023;17:00;96;25;5,3;26
26.05.2023;18:00;98;25;5,1;36
26.05.2023;19:00;96;25;4,6;33
26.05.2023;20:00;93;25;4,7;34
26.05.2023;21:00;89;25;4,6;35
26.05.2023;22:00;87;25;3,7;45
26.05.2023;23:00;78;26;2,3;63
26.05.2023;24:00;76;26;3,6;58
27.05.2023;01:00;74;27;4,6;53
27.05.2023;02:00;67;27;4,2;59
27.05.2023;03:00;64;27;3,9;57
27.05.2023;04:00;60;27;4,6;58
27.05.2023;05:00;57;27;4,9;55
27.05.2023;06:00;52;27;4,1;54
27.05.2023;07:00;50;27;3,9;59
27.05.2023;08:00;52;27;3,0;64
27.05.2023;09:00;54;26;2,7;68
27.05.2023;10:00;60;26;2,3;56
27.05.2023;11:00;75;26;2,7;47
27.05.2023;12:00;93;26;3,1;55
27.05.2023;13:00;99;25;3,2;44
27.05.2023;14:00;110;25;2,7;52
27.05.2023;15:00;117;25;2,2;51
27.05.2023;16:00;122;24;2,2;53
27.05.2023;17:00;126;24;2,0;66
27.05.2023;18:00;122;24;2,4;9
27.05.2023;19:00;116;24;2,9;358
27.05.2023;20:00;105;24;2,5;6
27.05.2023;21:00;95;25;2,7;25
27.05.2023;22:00;90;25;4,1;30
27.05.2023;23:00;;25;3,1;42
27.05.2023;24:00;42;24;0,6;
28.05.2023;01:00;23;23;0,9;161
28.05.2023;02:00;17;22;1,2;159
28.05.2023;03:00;14;22;1,3;147
28.05.2023;04:00;14;22;1,0;152
28.05.2023;05:00;16;22;1,2;80
28.05.2023;06:00;11;23;0,6;
28.05.2023;07:00;17;23;0,4;
28.05.2023;08:00;35;24;1,7;51
28.05.2023;09:00;66;25;1,6;79
28.05.2023;10:00;93;25;1,9;72
28.05.2023;11:00;89;25;2,4;62
28.05.2023;12:00;94;24;2,6;46
28.05.2023;13:00;108;24;3,5;22
28.05.2023;14:00;115;24;4,0;20
28.05.2023;15:00;117;24;4,3;27
28.05.2023;16:00;119;24;4,4;22
28.05.2023;17:00;116;23;4,0;23
28.05.2023;18:00;111;24;3,9;21
28.05.2023;19:00;105;23;3,8;30
28.05.2023;20:00;104;23;3,9;29
28.05.2023;21:00;99;22;3,2;28
28.05.2023;22:00;97;22;3,2;19
28.05.2023;23:00;94;21;3,0;25
28.05.2023;24:00;;21;4,4;39
29.05.2023;01:00;78;22;5,3;33
29.05.2023;02:00;72;22;3,3;31
29.05.2023;03:00;65;22;2,1;34
29.05.2023;04:00;63;22;4,4;34
29.05.2023;05:00;56;21;4,7;31
29.05.2023;06:00;58;21;3,9;28
29.05.2023;07:00;61;20;3,9;26
29.05.2023;08:00;59;18;3,4;30
29.05.2023;09:00;60;17;3,0;28
29.05.2023;10:00;63;17;3,9;6
29.05.2023;11:00;68;16;5,1;13
29.05.2023;12:00;72;16;5,5;10
29.05.2023;13:00;79;16;5,3;16
29.05.2023;14:00;87;17;5,3;12
29.05.2023;15:00;93;17;5,4;17
29.05.2023;16:00;96;17;5,5;3
29.05.2023;17:00;94;17;5,6;6
29.05.2023;18:00;91;17;4,7;12
29.05.2023;19:00;96;17;4,7;9
29.05.2023;20:00;96;17;4,2;7
29.05.2023;21:00;90;17;3,2;12
29.05.2023;22:00;86;17;2,7;358
29.05.2023;23:00;52;17;1,1;307
29.05.2023;24:00;56;17;1,6;34
30.05.2023;01:00;;17;3,1;2
30.05.2023;02:00;62;17;2,5;31
30.05.2023;03:00;62;17;3,8;21
30.05.2023;04:00;61;17;4,0;29
30.05.2023;05:00;59;17;3,4;32
30.05.2023;06:00;57;17;3,4;22
30.05.2023;07:00;54;18;3,6;31
30.05.2023;08:00;57;18;3,6;35
30.05.2023;09:00;59;19;3,4;31
30.05.2023;10:00;64;19;3,6;8
30.05.2023;11:00;70;19;3,9;16
30.05.2023;12:00;75;20;3,8;11
30.05.2023;13:00;81;20;3,9;7
30.05.2023;14:00;90;20;4,2;13
30.05.2023;15:00;100;20;4,6;19
30.05.2023;16:00;102;20;3,9;28
30.05.2023;17:00;102;20;4,9;36
30.05.2023;18:00;101;21;5,0;32
30.05.2023;19:00;100;21;4,7;31
30.05.2023;20:00;97;21;4,7;32
30.05.2023;21:00;92;21;4,1;29
30.05.2023;22:00;73;21;5,6;39
30.05.2023;23:00;57;21;5,6;38
30.05.2023;24:00;49;21;5,2;41
31.05.2023;01:00;46;21;3,5;46
31.05.2023;02:00;;21;2,4;56
31.05.2023;03:00;29;22;1,2;46
31.05.2023;04:00;27;23;1,9;58
31.05.2023;05:00;24;23;1,8;63
31.05.2023;06:00;22;24;1,6;66
31.05.2023;07:00;27;24;0,8;
31.05.2023;08:00;42;26;2,2;57
31.05.2023;09:00;53;26;2,6;63
31.05.2023;10:00;61;26;3,0;67
31.05.2023;11:00;75;27;3,2;56
31.05.2023;12:00;99;27;3,4;70
31.05.2023;13:00;111;26;4,3;69
31.05.2023;14:00;113;26;3,9;57
31.05.2023;15:00;120;26;5,1;29
31.05.2023;16:00;121;27;5,8;25
31.05.2023;17:00;119;27;5,3;29
31.05.2023;18:00;117;27;5,9;31
31.05.2023;19:00;121;27;5,6;31
31.05.2023;20:00;116;27;5,0;29
31.05.2023;21:00;104;27;3,6;29
31.05.2023;22:00;95;27;3,5;29
31.05.2023;23:00;91;28;3,5;44
31.05.2023;24:00;84;28;4,0;41
01.06.2023;01:00;78;29;2,8;42
01.06.2023;02:00;62;29;2,2;49
01.06.2023;03:00;;29;3,9;38
01.06.2023;04:00;53;29;3,1;27
01.06.2023;05:00;42;29;1,4;327
01.06.2023;06:00;34;28;1,8;333
01.06.2023;07:00;34;;2,5;10
01.06.2023;08:00;;;1,9;323
01.06.2023;09:00;33;;2,9;24
01.06.2023;10:00;40;;2,0;353
01.06.2023;11:00;53;;2,6;349
01.06.2023;12:00;67;;2,7;309
01.06.2023;13:00;85;;3,8;313
01.06.2023;14:00;98;;4,0;339
01.06.2023;15:00;105;;4,1;338
01.06.2023;16:00;109;;4,0;2
01.06.2023;17:00;108;;4,5;357
01.06.2023;18:00;103;;3,9;359
01.06.2023;19:00;103;;3,8;7
01.06.2023;20:00;102;;4,3;5
01.06.2023;21:00;76;;3,9;343
01.06.2023;22:00;61;;1,8;132
01.06.2023;23:00;70;;1,5;349
01.06.2023;24:00;64;;1,4;335
02.06.2023;01:00;64;;1,2;69
02.06.2023;02:00;67;;1,4;315
02.06.2023;03:00;66;;1,2;2
02.06.2023;04:00;68;23;3,8;347
02.06.2023;05:00;66;23;3,6;346
02.06.2023;06:00;67;23;3,0;359
02.06.2023;07:00;68;24;3,2;13
02.06.2023;08:00;69;24;3,2;10
02.06.2023;09:00;68;25;2,6;14
02.06.2023;10:00;67;26;3,1;4
02.06.2023;11:00;71;25;3,4;4
02.06.2023;12:00;74;26;3,8;22
02.06.2023;13:00;79;26;3,3;18
02.06.2023;14:00;86;26;3,5;31
02.06.2023;15:00;95;26;3,4;33
02.06.2023;16:00;99;26;4,2;38
02.06.2023;17:00;99;26;4,9;29
02.06.2023;18:00;96;26;4,8;26
02.06.2023;19:00;91;26;5,0;30
02.06.2023;20:00;90;27;4,6;34
02.06.2023;21:00;89;26;3,7;34
02.06.2023;22:00;83;26;3,1;54
02.06.2023;23:00;;26;3,2;50
02.06.2023;24:00;74;26;3,1;50
03.06.2023;01:00;68;26;3,2;47
03.06.2023;02:00;62;27;2,9;60
03.06.2023;03:00;58;27;2,6;69
03.06.2023;04:00;49;27;2,6;59
03.06.2023;05:00;55;27;3,0;41
03.06.2023;06:00;55;27;2,6;43
03.06.2023;07:00;58;26;2,5;56
03.06.2023;08:00;62;26;2,9;57
03.06.2023;09:00;66;25;3,2;61
03.06.2023;10:00;75;24;3,2;68
03.06.2023;11:00;85;23;3,9;75
03.06.2023;12:00;96;22;3,6;58
03.06.2023;13:00;101;22;3,9;61
03.06.2023;14:00;104;21;4,0;45
03.06.2023;15:00;104;21;5,0;28
03.06.2023;16:00;104;21;5,4;26
03.06.2023;17:00;103;21;5,9;24
03.06.2023;18:00;101;20;5,4;28
03.06.2023;19:00;98;20;5,7;31
03.06.2023;20:00;93;20;4,8;31
03.06.2023;21:00;90;19;4,4;27
03.06.2023;22:00;85;19;3,8;38
03.06.2023;23:00;80;19;4,4;33
03.06.2023;24:00;;19;4,4;37
04.06.2023;01:00;73;18;3,6;52
04.06.2023;02:00;44;18;2,4;57
04.06.2023;03:00;32;18;1,1;58
04.06.2023;04:00;16;17;0,4;
04.06.2023;05:00;14;17;0,4;
04.06.2023;06:00;12;17;0,5;
04.06.2023;07:00;25;17;0,5;
04.06.2023;08:00;47;19;0,9;
04.06.2023;09:00;67;20;2,0;52
04.06.2023;10:00;75;20;2,7;65
04.06.2023;11:00;89;20;3,5;60
04.06.2023;12:00;104;20;3,0;73
04.06.2023;13:00;108;20;3,4;54
04.06.2023;14:00;110;20;3,5;55
04.06.2023;15:00;115;20;3,6;31
04.06.2023;16:00;120;19;4,0;22
04.06.2023;17:00;121;19;3,7;17
04.06.2023;18:00;120;19;4,0;21
04.06.2023;19:00;118;19;4,6;25
04.06.2023;20:00;113;19;3,9;31
04.06.2023;21:00;111;19;3,5;24
04.06.2023;22:00;96;20;3,0;61
04.06.2023;23:00;93;20;3,3;48
04.06.2023;24:00;89;20;3,6;50
05.06.2023;01:00;;21;3,3;57
05.06.2023;02:00;72;22;2,8;55
05.06.2023;03:00;64;22;3,3;54
05.06.2023;04:00;57;22;3,0;49
05.06.2023;05:00;27;22;0,6;
05.06.2023;06:00;22;22;0,7;
05.06.2023;07:00;25;23;0,5;
05.06.2023;08:00;50;22;1,7;55
05.06.2023;09:00;54;22;1,3;48
05.06.2023;10:00;61;23;2,2;38
05.06.2023;11:00;70;23;2,7;27
05.06.2023;12:00;86;23;3,3;20
05.06.2023;13:00;96;23;3,5;21
05.06.2023;14:00;;24;;
05.06.2023;15:00;;24;;
05.06.2023;16:00;;24;;
05.06.2023;17:00;;25;;
05.06.2023;18:00;;25;;
05.06.2023;19:00;;25;;
05.06.2023;20:00;;25;;
05.06.2023;21:00;;25;;
05.06.2023;22:00;;26;;
05.06.2023;23:00;;26;;
05.06.2023;24:00;;27;;
06.06.2023;01:00;;27;;
06.06.2023;02:00;;26;;
06.06.2023;03:00;;26;;
06.06.2023;04:00;;26;;
06.06.2023;05:00;;26;;
06.06.2023;06:00;;27;;
06.06.2023;07:00;;27;;
06.06.2023;08:00;;26;;
06.06.2023;09:00;;25;;
06.06.2023;10:00;;25;;
06.06.2023;11:00;;25;;
06.06.2023;12:00;;26;;
06.06.2023;13:00;;26;3,6;17
06.06.2023;14:00;;27;3,8;11
06.06.2023;15:00;;27;3,6;15
06.06.2023;16:00;;27;4,2;24
06.06.2023;17:00;;27;3,5;17
06.06.2023;18:00;;27;4,8;42
06.06.2023;19:00;;28;3,7;47
06.06.2023;20:00;108;28;2,6;29
06.06.2023;21:00;104;28;2,4;53
06.06.2023;22:00;99;27;2,6;99
06.06.2023;23:00;96;28;2,4;66
06.06.2023;24:00;86;28;2,5;56
07.06.2023;01:00;23;30;1,7;44
07.06.2023;02:00;49;31;2,3;43
07.06.2023;03:00;60;32;3,9;42
07.06.2023;04:00;60;33;3,5;41
07.06.2023;05:00;47;34;1,5;45
07.06.2023;06:00;28;35;0,6;
07.06.2023;07:00;47;36;2,3;52
07.06.2023;08:00;47;37;2,2;52
07.06.2023;09:00;50;38;1,7;35
07.06.2023;10:00;56;38;2,3;41
07.06.2023;11:00;62;38;3,1;5
07.06.2023;12:00;45;37;3,2;310
07.06.2023;13:00;41;37;3,4;300
07.06.2023;14:00;52;37;3,2;314
07.06.2023;15:00;69;37;4,2;8
07.06.2023;16:00;73;38;5,0;21
07.06.2023;17:00;84;38;4,4;23
07.06.2023;18:00;89;38;3,4;33
07.06.2023;19:00;83;38;2,2;38
07.06.2023;20:00;83;38;1,2;319
07.06.2023;21:00;83;38;1,7;3
07.06.2023;22:00;69;39;2,2;69
07.06.2023;23:00;;39;2,0;46
07.06.2023;24:00;69;38;2,1;40
08.06.2023;01:00;41;37;1,0;27
08.06.2023;02:00;19;37;0,7;
08.06.2023;03:00;12;37;0,7;
08.06.2023;04:00;31;37;2,5;53
08.06.2023;05:00;52;37;3,0;60
08.06.2023;06:00;39;38;2,1;54
08.06.2023;07:00;31;37;0,5;
08.06.2023;08:00;58;36;2,0;47
08.06.2023;09:00;69;35;2,5;51
08.06.2023;10:00;83;35;2,5;57
08.06.2023;11:00;95;35;2,5;64
08.06.2023;12:00;114;35;2,9;44
08.06.2023;13:00;123;34;2,8;43
08.06.2023;14:00;125;34;2,8;36
08.06.2023;15:00;127;34;4,2;31
08.06.2023;16:00;116;34;4,8;35
08.06.2023;17:00;94;34;2,5;39
08.06.2023;18:00;76;34;1,0;235
08.06.2023;19:00;87;34;1,3;290
08.06.2023;20:00;99;34;2,7;71
08.06.2023;21:00;98;34;3,8;62
08.06.2023;22:00;92;34;3,1;78
08.06.2023;23:00;89;33;3,2;75
08.06.2023;24:00;;33;2,8;61
09.06.2023;01:00;60;33;3,2;67
09.06.2023;02:00;49;34;2,8;51
09.06.2023;03:00;40;33;2,7;68
09.06.2023;04:00;42;32;3,4;76
09.06.2023;05:00;33;32;3,5;79
09.06.2023;06:00;32;32;3,0;70
09.06.2023;07:00;37;32;2,7;58
09.06.2023;08:00;51;32;2,6;69
09.06.2023;09:00;64;32;2,7;61
09.06.2023;10:00;83;32;3,0;82
09.06.2023;11:00;97;32;3,3;84
09.06.2023;12:00;113;32;4,7;86
09.06.2023;13:00;118;31;5,1;93
09.06.2023;14:00;119;31;5,7;103
09.06.2023;15:00;122;30;5,2;102
09.06.2023;16:00;124;30;5,9;105
09.06.2023;17:00;127;29;5,2;108
09.06.2023;18:00;129;29;4,4;77
09.06.2023;19:00;127;29;3,9;98
09.06.2023;20:00;120;29;4,2;99
09.06.2023;21:00;114;29;3,9;90
09.06.2023;22:00;103;29;3,1;67
09.06.2023;23:00;93;29;3,7;72
09.06.2023;24:00;90;29;3,3;70
10.06.2023;01:00;;29;3,1;77
10.06.2023;02:00;81;29;3,3;72
10.06.2023;03:00;83;29;3,6;72
10.06.2023;04:00;83;29;3,7;70
10.06.2023;05:00;56;29;3,5;60
10.06.2023;06:00;46;29;3,0;60
10.06.2023;07:00;70;30;3,2;58
10.06.2023;08:00;83;31;3,1;61
10.06.2023;09:00;98;32;2,6;60
10.06.2023;10:00;127;32;2,7;65
10.06.2023;11:00;146;32;3,2;61
10.06.2023;12:00;146;33;3,9;76
10.06.2023;13:00;151;33;4,1;107
10.06.2023;14:00;145;33;3,8;72
10.06.2023;15:00;140;34;2,5;63
10.06.2023;16:00;133;34;2,7;82
10.06.2023;17:00;134;34;3,9;104
10.06.2023;18:00;129;34;3,5;97
10.06.2023;19:00;133;34;3,7;59
10.06.2023;20:00;127;34;3,1;94
10.06.2023;21:00;92;34;1,9;75
10.06.2023;22:00;85;34;2,4;47
10.06.2023;23:00;83;33;2,8;53
10.06.2023;24:00;74;33;2,6;73
11.06.2023;01:00;63;33;3,6;74
11.06.2023;02:00;;33;3,4;69
11.06.2023;03:00;73;33;3,0;73